GFSFLT2_sfc_dewp_159.txt.gz
Dewpoint
51 50 51 56 56 53 55 56 57 61 61 62 64 69 70 71 71 71 71 71 71 72 71 70 69 69 69 68 68 68 65 62
46 48 47 48 49 54 56 56 58 60 60 60 62 67 69 70 70 70 70 70 71 71 71 70 69 68 68 68 67 67 64 61
45 44 46 46 43 47 53 55 57 57 55 58 58 62 66 66 68 68 70 69 70 70 70 69 68 67 67 67 67 64 61 59
39 45 46 45 38 46 46 46 48 50 52 54 53 55 56 61 65 65 68 68 69 69 69 69 68 65 63 66 64 62 60 58
38 44 47 46 44 43 42 44 46 47 51 53 52 52 53 52 54 61 65 66 69 68 67 67 66 64 61 62 63 62 60 58
39 42 45 47 44 43 43 43 45 45 47 52 51 50 52 53 51 52 54 61 62 66 69 68 68 66 64 63 62 60 59 59
41 42 45 45 45 45 45 45 44 46 45 49 50 50 50 50 51 51 51 50 55 62 61 64 68 67 66 63 62 62 62 60
41 41 44 44 44 46 45 45 45 44 45 47 49 48 49 48 48 48 49 50 51 53 58 62 62 68 67 66 64 62 61 62
40 40 44 44 44 44 43 44 44 43 43 46 47 48 48 48 46 46 47 50 52 52 52 54 62 64 66 68 66 64 62 61
40 39 42 44 44 43 42 43 43 42 43 43 47 47 46 46 44 45 47 47 47 48 50 51 54 61 64 67 68 66 65 62
38 41 41 42 43 42 43 44 42 42 42 42 45 44 45 44 43 44 46 44 45 46 46 50 52 56 60 63 66 66 66 64
37 38 40 41 40 41 40 41 41 41 41 41 43 43 44 43 42 43 43 42 43 45 46 46 48 50 53 57 63 65 66 65
36 37 39 38 36 37 38 39 39 40 40 42 42 42 43 42 41 41 42 41 42 43 45 46 46 48 51 54 59 62 64 64
34 35 36 36 35 36 38 39 39 39 39 41 41 42 43 40 40 39 39 39 41 41 42 44 45 47 49 49 53 56 60 62
33 34 35 36 38 36 38 38 38 37 37 37 39 41 41 41 40 39 39 38 38 39 39 41 41 42 46 48 50 51 52 59
34 34 34 34 37 36 37 35 35 36 36 37 37 39 39 39 38 38 37 37 37 38 37 40 41 41 43 44 47 47 50 54
35 34 33 34 35 36 35 36 35 35 36 37 38 38 38 37 37 37 36 36 36 37 37 37 39 41 42 42 44 45 48 53
34 33 32 34 35 35 35 35 35 34 34 34 34 35 36 36 35 36 36 35 34 34 35 36 37 39 40 42 43 44 46 48
30 31 31 33 34 35 35 34 34 33 33 33 33 33 33 34 34 34 34 34 34 34 34 35 36 37 38 39 42 44 47 49
32 30 31 32 33 34 34 34 32 32 32 32 32 32 32 33 33 32 32 33 34 34 33 35 36 35 36 39 41 43 47 48

GFSFLT2_sfc_dewp_162.txt.gz
Dewpoint
55 54 54 58 56 56 57 59 60 60 62 60 62 65 68 70 70 71 71 71 71 71 71 71 70 69 69 68 67 67 66 65
51 52 51 54 55 55 57 57 59 59 60 59 62 64 64 66 68 68 69 70 70 70 70 70 69 68 67 67 67 67 66 64
49 47 49 50 49 50 56 57 58 58 56 58 56 56 58 57 65 66 67 68 69 69 69 69 69 67 67 67 67 66 65 63
43 48 48 49 42 51 52 50 51 54 55 54 54 56 57 56 58 61 65 65 67 68 68 68 68 69 66 66 66 65 63 61
41 48 50 49 47 47 47 48 50 51 54 53 53 53 55 54 54 54 55 60 65 64 67 68 67 67 66 64 65 64 63 60
41 45 49 50 47 47 47 46 48 48 51 52 51 50 52 51 51 52 53 53 55 62 63 63 64 67 67 66 67 66 64 64
43 46 48 48 49 49 49 48 48 50 49 51 49 49 50 50 50 51 51 52 52 52 54 56 59 62 64 67 66 66 68 63
44 44 47 47 48 50 50 49 49 48 49 49 49 49 48 47 48 48 49 50 49 49 49 51 52 57 62 64 66 66 66 66
43 44 47 48 47 47 49 48 48 47 47 49 48 48 47 46 46 46 47 47 47 47 47 48 49 52 53 60 64 65 65 64
42 41 44 47 48 48 47 48 49 47 46 46 47 47 46 44 44 44 46 45 45 46 46 46 46 47 49 51 55 59 65 65
40 44 43 45 46 46 48 48 47 47 46 45 46 45 46 44 43 44 44 44 44 44 44 44 44 44 46 47 49 53 58 64
40 41 43 44 45 46 45 46 46 46 45 44 45 44 44 44 42 42 42 41 41 41 42 43 43 43 43 44 47 50 52 58
38 40 42 40 39 40 41 41 43 44 42 44 43 44 43 42 40 39 39 39 39 38 39 39 40 42 43 43 44 44 46 54
38 37 38 38 37 39 42 43 43 43 42 43 42 43 43 39 39 39 37 38 37 37 37 36 38 39 39 41 42 43 49 51
35 36 37 38 39 38 40 42 41 39 39 39 41 41 42 41 37 37 37 37 37 36 35 35 36 37 39 42 40 40 41 45
36 36 36 36 38 38 38 36 35 37 37 38 38 40 40 39 37 36 36 36 36 35 34 35 36 36 37 39 41 41 40 40
37 36 35 36 37 38 37 36 36 36 37 37 37 38 38 37 36 36 35 36 33 35 34 35 34 36 37 38 38 39 40 42
37 35 33 35 36 38 37 37 36 35 34 34 34 35 35 36 34 34 34 35 35 34 35 34 34 36 36 36 37 38 39 40
34 33 32 34 36 37 37 36 36 34 33 33 33 33 33 33 32 33 33 34 34 33 33 33 33 34 34 34 37 36 39 41
33 31 31 32 34 36 36 35 34 34 34 33 33 32 32 31 31 31 33 33 33 32 33 32 32 33 30 32 32 34 37 36

GFSFLT2_sfc_dewp_165.txt.gz
Dewpoint
49 49 51 57 57 57 59 60 61 61 60 61 61 61 64 65 68 67 68 68 70 70 70 70 70 69 68 67 67 67 66 66
46 47 48 48 46 56 59 60 60 59 58 59 59 59 60 60 62 64 67 67 68 69 69 69 69 69 68 67 66 67 66 66
46 46 46 46 44 51 54 56 57 57 54 55 55 54 54 55 58 60 60 62 66 66 67 68 68 68 67 67 66 66 66 65
45 46 46 46 45 47 47 48 50 53 51 51 52 51 53 52 54 56 56 59 61 64 64 66 67 68 68 67 67 66 65 64
44 46 47 46 45 46 47 47 49 50 50 49 49 50 50 50 51 51 52 54 55 55 57 58 62 63 65 67 66 66 65 64
43 45 46 46 46 47 47 46 47 48 49 48 47 48 47 47 48 49 49 49 49 50 52 52 54 56 59 63 65 67 66 67
42 44 45 45 45 47 46 46 47 47 48 47 48 46 46 46 46 47 46 46 46 46 47 47 49 51 54 58 63 65 67 66
42 43 44 44 45 45 46 45 46 46 47 46 48 46 44 44 45 45 44 45 45 45 46 45 45 46 47 49 51 55 60 66
40 42 43 43 44 44 45 45 46 46 45 45 46 46 43 43 44 43 42 44 44 44 43 44 44 44 44 45 48 49 52 57
41 41 41 42 42 43 44 45 45 44 44 45 45 45 43 43 42 42 42 41 41 41 42 42 42 42 43 44 45 47 48 52
39 40 40 40 41 43 44 44 43 44 44 44 44 44 43 41 40 40 40 40 40 39 38 39 39 40 40 41 42 44 45 47
38 39 39 39 40 41 41 42 43 43 42 42 43 43 42 40 39 39 39 39 38 38 37 37 38 38 37 39 40 41 43 47
36 38 37 38 37 38 39 39 40 41 41 41 42 42 42 38 38 37 37 37 36 36 36 36 36 37 37 37 40 42 42 44
35 36 37 37 37 38 39 40 40 40 39 39 41 41 40 37 37 36 35 35 35 34 34 34 35 36 37 37 37 38 41 38
34 35 36 37 37 37 38 38 37 37 37 38 38 40 39 37 36 35 35 35 34 34 34 33 34 35 36 38 37 35 35 40
34 34 34 35 36 36 35 35 34 36 36 37 36 38 37 35 35 34 34 34 34 34 34 34 35 34 36 36 37 38 36 34
33 34 34 35 35 36 36 35 35 36 35 34 35 36 36 34 34 32 32 33 33 33 34 33 35 35 36 35 33 35 37 38
32 33 33 34 35 36 35 35 33 33 33 33 34 35 34 33 31 31 32 33 33 32 33 33 33 34 34 34 34 33 33 34
31 32 32 33 35 35 34 34 34 33 33 33 32 32 32 31 30 30 31 32 32 32 32 32 32 32 32 33 33 32 34 33
31 31 31 31 33 34 34 33 34 34 32 32 31 31 30 29 29 29 30 30 30 31 31 32 30 32 30 30 31 32 32 32

GFSFLT2_sfc_dewp_168.txt.gz
Dewpoint
47 48 50 54 59 61 61 61 58 57 58 58 58 59 59 60 60 60 60 65 67 68 68 69 69 69 69 67 66 67 66 65
46 46 47 46 51 58 59 60 56 55 56 56 56 56 56 56 57 58 58 60 62 65 65 67 68 68 68 67 66 66 66 66
46 46 46 45 47 50 52 55 54 53 52 53 52 52 52 53 54 55 57 58 57 57 58 60 62 65 67 67 67 67 66 66
45 46 46 45 46 46 47 49 51 49 49 49 50 49 49 50 51 54 53 53 53 53 54 54 55 55 57 62 66 67 66 66
45 45 46 45 46 46 46 47 49 49 48 48 48 47 47 47 48 49 47 49 46 49 49 50 51 53 54 56 61 65 66 66
44 45 45 45 46 46 45 47 47 47 47 47 45 45 45 45 46 45 44 46 45 46 47 47 48 49 49 50 52 56 61 66
43 44 44 44 45 45 45 46 47 46 46 46 45 43 43 44 44 43 43 44 44 44 44 43 44 45 46 47 48 51 53 56
42 42 44 43 44 44 44 45 46 45 44 46 45 43 43 44 42 41 41 42 42 42 42 42 42 43 43 44 45 48 50 52
41 41 42 42 43 43 44 45 44 44 44 45 44 43 42 42 41 40 40 41 40 40 40 40 40 40 41 42 42 42 44 46
40 40 39 41 41 43 44 44 44 43 44 44 44 43 41 40 40 39 40 40 39 38 38 37 38 38 38 38 38 41 42 44
38 38 38 39 40 41 42 43 43 43 43 42 43 42 40 39 38 38 39 38 38 37 37 37 36 36 36 37 38 39 40 42
38 38 37 37 39 40 40 41 41 41 41 42 42 40 39 38 37 38 37 37 36 35 35 35 35 35 35 36 37 39 41 43
37 37 37 37 37 37 38 39 39 39 39 40 41 38 38 36 36 36 36 35 34 34 34 34 35 35 35 35 39 40 42 36
36 36 36 36 36 37 38 39 38 38 38 38 40 37 36 35 35 35 35 34 33 33 33 33 33 35 35 36 35 36 39 35
35 35 35 36 36 36 37 37 37 35 36 36 38 35 35 36 35 34 33 34 33 33 33 33 32 33 35 35 32 31 33 37
34 34 34 35 37 36 35 34 33 35 35 35 35 36 34 35 34 33 33 34 33 33 33 34 34 33 34 32 33 34 34 31
34 34 34 35 35 36 35 34 35 34 34 34 34 35 33 33 32 32 32 32 32 32 32 33 34 33 33 33 31 31 34 31
33 33 33 35 35 34 34 33 33 32 32 32 33 33 32 31 31 31 31 31 32 32 33 32 31 32 32 32 33 31 30 31
32 32 31 33 34 33 33 33 33 32 31 31 31 31 29 29 29 30 30 30 31 31 32 30 30 31 31 30 31 32 32 29
31 31 30 31 33 33 33 33 33 32 30 30 30 29 29 28 29 29 28 29 29 30 32 30 29 30 28 29 29 28 28 29